Wind_Speed
15 14 14 14 14 14 15 15 15 14 13 12 11 10 10 9 7 7 7 6 6 6 6 5 5 5 5 5 4 3 2 1 1 1 2 1 1 3 4 5 4 5 4 4 5 5 5 4 4
15 14 14 14 15 14 16 16 15 15 15 13 11 11 10 9 8 7 7 6 6 6 5 5 5 5 5 6 5 4 2 1 1 1 1 2 2 2 3 4 4 4 4 4 4 4 5 4 4
15 15 15 15 16 15 15 16 16 16 15 13 12 11 10 9 9 8 8 7 7 6 5 5 5 5 6 6 5 5 3 1 1 1 1 2 2 2 3 3 3 2 3 3 4 4 5 4 4
14 15 15 16 17 17 16 16 16 16 15 14 13 12 10 9 9 9 8 8 7 7 6 6 5 5 6 6 6 5 4 2 1 0 1 1 2 2 3 2 2 2 2 2 3 3 4 4 5
14 14 15 16 16 17 17 16 15 15 14 14 13 12 11 10 9 9 9 9 8 8 7 7 5 5 6 6 6 5 5 3 1 1 2 2 2 2 2 3 3 2 2 1 2 3 4 4 4
13 14 15 16 16 16 15 15 15 15 15 14 13 12 11 10 10 10 9 9 9 9 8 7 6 6 6 6 6 5 4 3 2 1 2 2 2 2 2 2 2 2 1 1 2 3 3 3 3
12 13 14 15 16 15 15 15 14 14 14 14 14 13 12 10 11 10 9 9 9 9 9 8 7 6 6 6 6 5 5 3 3 2 2 2 2 2 2 2 2 2 1 1 2 2 2 3 3
12 13 14 14 14 14 13 13 13 13 14 14 14 14 13 12 11 10 10 10 10 10 10 9 8 7 7 7 7 6 6 5 4 3 3 3 3 2 2 2 1 1 0 1 2 3 3 3 3
12 13 14 13 13 13 14 14 14 14 14 14 14 14 13 12 11 11 10 10 10 10 9 9 9 8 8 8 7 7 7 6 5 4 3 3 3 2 2 1 1 0 1 1 2 2 2 3 3
11 12 11 11 12 13 13 13 15 15 14 13 14 14 14 13 12 11 11 11 11 10 10 9 9 9 8 8 8 8 6 5 5 4 4 4 3 2 2 1 1 1 1 1 1 1 2 3 3
10 11 11 11 12 12 12 12 14 14 14 14 13 13 13 13 13 12 12 11 11 11 11 10 10 10 9 9 8 8 7 6 5 5 4 3 3 2 2 2 1 1 1 1 1 2 2 2 2
8 9 9 10 11 11 12 12 13 14 14 14 13 13 12 12 12 12 12 11 11 11 11 10 10 10 10 9 8 8 7 7 7 6 4 3 3 2 1 2 2 2 2 2 2 2 1 1 2
7 6 7 8 9 10 11 11 12 13 13 14 14 13 12 12 11 11 11 11 11 11 10 10 10 10 10 10 9 8 7 7 6 5 5 4 3 3 2 1 2 2 1 2 2 1 1 2 2
4 5 6 7 8 9 10 11 12 12 13 14 14 13 13 12 11 10 10 11 11 11 10 9 9 9 10 10 9 8 7 6 5 5 5 4 3 2 2 1 2 2 2 2 1 2 2 3 3
3 4 5 7 9 8 9 10 11 11 13 14 13 13 13 12 11 10 10 10 10 10 10 10 9 8 9 9 9 7 7 6 5 4 4 4 3 2 1 1 1 1 1 2 2 2 3 4 4
3 4 6 7 8 8 8 9 10 11 12 13 13 13 13 11 11 10 10 10 10 9 9 10 9 8 8 9 9 9 8 7 5 4 3 3 2 2 1 1 1 1 1 1 2 3 3 4 4
2 3 3 5 6 7 7 9 10 10 11 12 12 12 11 11 10 10 9 9 9 9 9 9 8 8 8 8 8 8 8 7 5 4 4 3 1 1 1 1 1 1 1 2 3 3 4 4 5
1 1 1 2 5 6 7 7 7 8 9 10 11 11 10 10 10 10 9 9 9 9 9 8 8 7 7 7 7 7 7 6 5 5 4 3 2 2 1 1 1 2 2 2 3 3 4 5 6
2 2 3 2 3 5 6 6 6 8 9 10 10 11 11 10 10 9 9 9 9 9 9 8 7 7 7 7 6 6 6 6 5 4 4 3 3 3 2 2 2 2 2 3 4 4 5 6 7
4 3 4 4 4 6 6 5 6 8 9 10 10 10 10 10 10 9 9 9 9 9 8 8 7 7 6 6 5 4 5 5 4 4 4 3 3 3 3 3 2 2 3 3 4 5 7 7 7
6 5 5 6 6 7 8 7 7 8 8 10 10 10 10 10 10 9 9 9 9 8 8 8 7 7 7 6 5 4 5 5 5 4 4 3 3 4 3 3 3 3 4 5 6 6 7 8 8
8 7 8 9 9 9 9 9 8 8 7 9 9 11 11 10 10 9 9 9 8 7 7 8 7 7 6 6 6 6 6 6 6 5 4 4 4 4 5 5 4 5 5 5 6 7 7 8 8
9 10 11 10 10 10 10 10 8 8 7 8 9 10 10 10 10 9 9 9 8 8 7 8 8 8 7 7 6 6 7 7 7 6 6 6 6 6 5 5 4 5 5 6 6 7 8 8 8
12 13 13 13 12 12 11 12 11 10 9 9 9 9 9 9 9 9 9 9 9 8 7 8 8 8 8 8 8 8 7 7 8 8 7 7 7 7 6 5 5 6 6 7 7 8 8 9 9
15 15 15 16 14 12 12 12 11 10 11 11 10 9 8 8 9 9 8 9 9 9 8 9 8 9 9 9 9 9 9 9 9 9 8 8 7 7 7 6 6 6 7 8 8 8 8 9 10
15 16 15 15 14 13 12 13 10 10 12 12 11 10 9 8 8 9 7 8 9 9 9 9 9 10 11 10 10 10 11 10 10 10 9 8 8 8 8 8 8 7 8 9 9 9 9 10 10
15 16 15 16 16 15 15 15 13 11 12 12 11 11 10 9 9 9 9 9 9 10 10 11 11 11 12 11 11 12 12 12 12 11 11 10 10 10 10 10 10 10 9 10 10 10 10 11 11
16 16 18 18 18 18 17 15 14 13 14 14 12 11 11 10 10 10 10 10 11 12 12 13 13 13 13 13 13 14 14 14 13 13 13 12 12 12 12 11 11 12 12 12 12 12 12 12 12
18 18 19 20 20 19 18 17 16 17 17 16 14 14 13 13 11 11 11 11 13 13 13 14 15 15 15 14 15 15 14 14 14 14 14 14 14 14 14 14 13 13 13 13 13 14 15 14 14
21 20 20 21 21 21 22 20 19 20 19 19 17 16 15 15 12 12 12 13 14 14 14 15 16 16 16 16 16 15 15 15 15 15 15 15 15 15 15 15 15 14 14 14 14 15 16 15 15
Wind_Direction
79 74 69 62 58 56 55 53 50 50 51 51 47 41 35 32 40 43 40 37 40 36 33 33 27 14 5 4 344 319 315 298 303 288 273 233 226 199 190 204 207 215 216 219 221 217 224 242 249
80 75 69 63 57 53 50 49 47 49 52 51 46 42 37 36 39 40 36 32 33 32 29 27 23 15 9 10 5 348 320 314 280 254 242 240 241 205 193 195 190 205 218 232 231 231 237 250 259
80 75 69 63 57 54 46 45 47 46 48 47 44 42 41 41 41 40 36 31 30 32 26 23 20 13 10 14 16 8 0 336 311 228 194 207 219 195 189 189 183 203 222 237 241 247 242 248 262
76 74 69 61 54 51 46 42 43 44 41 40 40 39 37 40 41 40 37 36 36 35 30 25 22 15 15 19 18 16 14 4 353 133 145 153 181 175 187 185 184 193 213 237 250 257 246 253 265
73 67 64 59 50 47 44 40 38 40 37 36 37 36 35 37 39 40 39 39 41 38 35 31 26 21 20 19 20 15 14 13 30 133 158 164 171 178 173 173 183 184 191 238 257 265 268 272 274
75 64 62 58 48 42 40 38 40 39 38 36 35 35 33 36 42 42 44 42 40 40 37 34 32 27 26 26 26 21 20 29 57 103 120 131 155 166 169 178 192 201 219 258 280 278 277 284 273
72 64 61 53 45 38 35 36 38 36 35 33 31 33 32 35 42 41 41 41 41 40 38 35 37 31 30 33 31 20 34 54 75 80 89 111 137 144 160 165 178 186 214 245 286 293 288 289 282
71 66 58 50 43 37 34 34 36 35 33 31 29 29 33 35 39 38 37 38 40 37 37 39 41 35 34 34 33 39 48 67 71 86 88 100 119 127 139 146 159 141 256 274 299 302 307 304 289
73 64 51 44 39 36 34 34 36 36 32 29 29 31 33 35 39 41 39 38 38 36 37 40 42 41 37 38 44 49 55 64 73 79 85 89 110 128 139 147 166 219 22 343 331 320 311 309 284
75 60 50 42 37 34 34 34 34 32 31 27 28 31 33 38 41 44 44 40 37 37 38 41 42 42 41 42 45 49 53 62 72 74 82 85 100 114 109 107 96 46 24 8 337 354 356 339 311
77 64 53 47 40 38 36 34 30 27 27 26 27 30 31 33 38 43 42 38 35 34 33 37 39 41 45 45 45 49 55 61 70 81 84 83 99 120 110 87 64 36 48 40 1 332 335 338 325
75 66 55 50 44 39 36 35 33 25 23 25 27 30 31 32 33 37 37 36 35 35 34 37 41 42 43 42 39 46 53 63 71 79 76 78 89 104 113 78 76 50 52 47 12 337 343 350 325
87 76 61 48 43 38 36 33 32 23 21 25 28 27 28 28 30 32 32 32 34 34 33 37 40 41 40 38 38 45 49 56 63 68 70 72 81 91 93 80 45 37 33 21 12 1 357 351 342
83 67 56 46 35 33 33 31 30 24 22 24 25 24 24 27 28 30 29 30 33 32 34 37 36 38 41 37 41 44 47 52 53 57 62 62 74 93 95 72 64 45 39 21 11 1 358 353 357
80 58 48 48 39 31 32 27 28 24 22 23 21 20 22 25 28 29 27 29 31 30 34 37 37 44 42 38 39 44 44 45 43 48 58 60 68 79 75 37 41 21 7 347 4 8 360 352 351
91 75 56 49 40 29 24 27 22 19 17 18 16 16 19 22 25 28 27 27 29 29 31 35 40 41 37 39 38 40 40 38 37 40 45 50 63 59 45 44 24 339 328 340 347 346 347 350 345
74 85 45 33 29 18 12 17 14 11 14 13 11 11 15 19 19 22 25 26 26 26 26 28 30 31 30 31 32 35 37 36 35 32 32 33 54 68 29 356 339 308 302 330 331 334 339 338 334
118 90 21 25 29 6 3 3 2 358 6 8 4 5 8 12 13 11 16 18 18 20 20 22 25 25 25 23 21 27 30 31 34 34 27 19 12 7 353 314 312 303 302 321 327 328 328 326 325
211 271 323 12 33 343 335 341 345 344 349 356 356 356 359 358 4 4 6 8 9 10 10 12 15 18 16 14 13 22 26 28 30 36 31 17 5 353 333 307 302 300 304 315 325 327 324 319 317
242 283 327 342 339 317 321 322 328 327 335 340 340 342 348 350 352 356 357 359 1 0 3 4 3 5 4 2 5 14 17 21 19 16 16 10 357 353 350 330 322 306 305 307 312 315 316 314 316
250 264 290 299 300 301 303 307 302 308 318 325 330 333 337 342 347 347 353 355 354 353 356 355 356 353 354 353 353 359 359 353 348 346 343 342 345 344 339 327 325 310 299 303 308 311 316 312 310
255 259 269 279 283 286 283 288 292 302 304 313 321 328 329 330 337 339 342 345 347 348 348 349 346 344 344 344 344 349 345 341 336 324 319 317 320 323 318 315 314 304 304 310 312 313 321 320 312
258 261 265 270 268 267 272 272 279 287 296 306 312 318 319 322 330 332 332 338 341 341 340 344 342 340 335 331 330 330 327 327 329 321 314 311 308 309 315 310 302 303 302 307 312 317 319 320 316
253 258 264 263 263 266 270 271 273 284 292 291 296 304 306 309 312 315 315 328 336 335 331 334 331 331 330 325 321 319 317 314 317 320 312 308 304 298 300 296 300 307 305 305 304 308 313 317 318
249 255 261 261 263 275 275 271 277 283 284 281 283 286 290 297 295 300 308 320 326 331 329 328 326 323 320 316 315 312 309 306 307 310 310 306 304 300 296 294 297 304 303 304 300 303 308 313 315
248 254 259 262 266 275 276 276 286 282 281 275 276 280 282 289 291 293 297 306 311 314 319 317 315 314 314 313 310 308 309 304 301 298 299 298 300 298 297 296 295 296 296 300 301 300 304 307 306
247 249 256 263 267 269 271 280 281 284 280 275 271 275 279 284 293 295 294 297 303 312 310 311 310 309 311 313 312 309 306 303 298 293 292 290 290 294 293 290 292 295 294 296 297 299 304 308 304
243 248 250 256 261 264 269 273 280 283 284 285 280 281 289 287 285 285 289 294 300 308 311 309 312 310 307 308 307 308 308 306 297 290 288 287 286 285 287 283 287 292 293 293 294 297 299 302 303
239 241 249 254 259 262 268 272 277 279 280 280 282 290 285 283 281 283 285 288 292 300 306 308 309 310 307 308 307 307 306 305 301 297 291 290 288 285 282 283 285 287 287 289 292 294 294 295 295
243 245 248 250 253 258 264 271 272 274 274 277 280 285 283 280 278 283 285 288 291 297 302 305 308 310 311 307 305 304 301 300 301 298 295 291 287 284 282 281 281 283 284 284 288 290 291 293 293
Height
5912 5911 5911 5911 5910 5909 5908 5907 5906 5905 5905 5904 5903 5902 5901 5900 5900 5901 5898 5896 5895 5894 5894 5893 5893 5892 5891 5890 5889 5888 5887 5887 5886 5886 5886 5885 5885 5885 5886 5887 5888 5888 5889 5889 5890 5890 5891 5891 5891
5913 5913 5913 5913 5911 5910 5910 5909 5908 5907 5907 5905 5904 5903 5902 5901 5900 5899 5898 5897 5896 5895 5894 5894 5893 5892 5891 5890 5889 5888 5887 5887 5886 5886 5886 5886 5886 5886 5886 5887 5887 5888 5889 5889 5890 5890 5890 5890 5890
5915 5914 5915 5914 5912 5912 5911 5910 5910 5908 5907 5906 5906 5904 5903 5902 5900 5899 5898 5897 5896 5895 5895 5894 5893 5892 5891 5890 5889 5888 5887 5887 5886 5886 5886 5886 5886 5886 5886 5887 5887 5888 5889 5889 5890 5890 5890 5890 5890
5917 5917 5917 5916 5914 5913 5913 5912 5911 5910 5909 5908 5907 5905 5904 5903 5901 5900 5899 5898 5897 5896 5895 5894 5894 5893 5892 5891 5890 5888 5887 5887 5886 5886 5886 5886 5887 5887 5887 5887 5888 5888 5889 5889 5889 5889 5889 5889 5889
5918 5918 5918 5916 5915 5914 5914 5913 5912 5911 5910 5909 5908 5906 5905 5904 5902 5901 5899 5898 5897 5897 5896 5895 5894 5893 5892 5891 5889 5888 5887 5886 5886 5886 5887 5887 5887 5888 5887 5888 5888 5888 5889 5889 5889 5889 5889 5889 5888
5920 5920 5919 5917 5917 5916 5916 5915 5914 5913 5912 5910 5909 5907 5906 5905 5903 5901 5900 5899 5898 5897 5896 5895 5894 5893 5892 5891 5889 5887 5886 5886 5886 5886 5886 5887 5887 5887 5888 5888 5888 5888 5888 5889 5889 5888 5888 5888 5887
5922 5921 5919 5919 5918 5918 5917 5916 5915 5914 5913 5911 5910 5908 5906 5905 5904 5902 5901 5900 5899 5898 5897 5896 5895 5893 5892 5891 5889 5887 5885 5885 5886 5886 5886 5887 5887 5887 5888 5888 5888 5888 5888 5888 5888 5888 5888 5887 5887
5923 5922 5921 5920 5919 5919 5919 5918 5917 5916 5914 5913 5911 5909 5907 5906 5905 5903 5902 5901 5900 5899 5897 5896 5895 5894 5892 5891 5889 5888 5886 5885 5886 5887 5887 5887 5887 5888 5888 5888 5889 5889 5888 5888 5888 5888 5887 5887 5886
5924 5924 5922 5922 5921 5921 5920 5919 5918 5917 5915 5914 5912 5910 5908 5907 5906 5904 5902 5901 5900 5899 5898 5897 5896 5895 5893 5892 5890 5889 5888 5888 5888 5888 5888 5888 5888 5888 5889 5888 5889 5889 5888 5888 5888 5887 5887 5886 5886
5925 5925 5925 5924 5923 5922 5921 5920 5919 5917 5916 5915 5913 5911 5909 5907 5906 5905 5904 5903 5901 5900 5899 5898 5897 5896 5894 5893 5891 5891 5890 5889 5889 5889 5889 5889 5889 5889 5889 5889 5889 5888 5888 5888 5887 5887 5886 5885 5885
5926 5926 5925 5925 5924 5924 5922 5921 5920 5918 5918 5916 5914 5912 5910 5909 5908 5906 5905 5904 5903 5901 5900 5899 5898 5896 5895 5894 5892 5892 5891 5890 5890 5889 5889 5889 5889 5889 5889 5889 5889 5889 5888 5888 5887 5886 5886 5885 5884
5927 5926 5926 5925 5925 5925 5924 5923 5921 5920 5919 5917 5915 5913 5911 5910 5909 5907 5906 5905 5904 5902 5900 5899 5898 5897 5896 5895 5893 5892 5892 5891 5891 5890 5890 5890 5889 5889 5889 5889 5889 5888 5888 5888 5887 5886 5885 5885 5884
5928 5928 5927 5927 5926 5925 5925 5924 5922 5921 5920 5918 5916 5914 5913 5911 5909 5908 5907 5906 5904 5903 5901 5900 5899 5898 5897 5895 5894 5893 5892 5892 5891 5891 5890 5890 5890 5889 5889 5889 5889 5888 5888 5887 5886 5886 5885 5885 5884
5929 5928 5928 5928 5927 5926 5926 5925 5924 5922 5920 5919 5917 5916 5914 5912 5910 5909 5908 5907 5905 5904 5902 5901 5900 5899 5898 5896 5895 5894 5893 5892 5892 5891 5891 5890 5890 5889 5889 5889 5889 5888 5888 5887 5886 5886 5885 5884 5883
5929 5930 5930 5929 5928 5927 5927 5926 5924 5923 5921 5920 5919 5917 5915 5913 5911 5910 5909 5908 5906 5905 5903 5902 5900 5899 5899 5897 5896 5895 5894 5893 5892 5891 5891 5890 5890 5889 5889 5889 5889 5888 5887 5887 5886 5885 5885 5883 5883
5930 5930 5930 5929 5929 5927 5928 5927 5925 5923 5922 5921 5920 5918 5916 5914 5912 5911 5910 5909 5907 5906 5904 5903 5901 5900 5899 5898 5897 5896 5894 5893 5892 5891 5891 5890 5890 5890 5889 5889 5888 5888 5887 5886 5886 5885 5884 5883 5882
5929 5929 5929 5929 5928 5927 5927 5926 5925 5923 5923 5921 5920 5919 5918 5916 5914 5912 5911 5909 5908 5906 5905 5904 5902 5901 5900 5899 5898 5896 5895 5894 5892 5892 5891 5891 5890 5889 5889 5888 5888 5887 5887 5886 5885 5885 5884 5883 5882
5929 5928 5928 5928 5928 5928 5927 5925 5925 5923 5922 5922 5921 5919 5918 5917 5915 5913 5912 5910 5908 5907 5906 5904 5903 5902 5900 5899 5898 5897 5895 5894 5893 5892 5891 5890 5890 5889 5889 5888 5887 5887 5886 5885 5884 5884 5883 5882 5881
5927 5927 5926 5926 5926 5927 5926 5925 5924 5922 5922 5921 5920 5919 5918 5917 5916 5914 5912 5910 5908 5907 5906 5904 5903 5902 5901 5899 5898 5897 5895 5894 5893 5892 5891 5890 5889 5889 5888 5887 5886 5886 5885 5884 5884 5883 5882 5881 5880
5926 5925 5925 5925 5925 5925 5924 5923 5923 5922 5921 5921 5920 5919 5918 5917 5916 5914 5912 5910 5909 5907 5906 5904 5903 5902 5900 5899 5898 5896 5895 5894 5893 5892 5891 5890 5889 5888 5887 5886 5885 5884 5884 5883 5882 5881 5880 5879 5878
5924 5924 5924 5924 5924 5924 5923 5923 5922 5921 5920 5919 5918 5918 5917 5916 5915 5913 5912 5910 5909 5907 5906 5904 5903 5902 5900 5898 5897 5896 5895 5894 5893 5891 5890 5889 5888 5887 5886 5885 5884 5883 5882 5882 5881 5880 5879 5877 5876
5922 5923 5922 5922 5921 5921 5922 5921 5920 5919 5918 5918 5917 5916 5916 5914 5914 5912 5911 5909 5908 5906 5905 5904 5902 5901 5900 5898 5897 5895 5894 5893 5892 5890 5889 5888 5887 5886 5885 5884 5883 5882 5881 5880 5879 5878 5877 5875 5874
5920 5920 5920 5920 5919 5919 5919 5918 5919 5917 5916 5916 5915 5914 5914 5913 5912 5911 5910 5908 5907 5906 5904 5903 5901 5900 5899 5898 5896 5895 5894 5892 5891 5889 5888 5887 5885 5884 5883 5882 5881 5880 5879 5878 5877 5876 5875 5873 5872
5916 5917 5916 5917 5916 5916 5917 5916 5916 5915 5914 5914 5913 5912 5911 5911 5909 5909 5908 5907 5906 5905 5903 5901 5900 5899 5897 5896 5895 5893 5892 5891 5889 5888 5886 5885 5883 5882 5881 5880 5879 5878 5877 5876 5875 5874 5872 5871 5869
5913 5913 5913 5913 5913 5913 5914 5913 5914 5913 5912 5911 5910 5910 5909 5908 5907 5907 5906 5906 5905 5904 5902 5901 5899 5897 5896 5894 5893 5891 5890 5888 5887 5885 5884 5883 5881 5880 5879 5878 5877 5876 5875 5874 5872 5871 5870 5868 5867
5909 5910 5910 5910 5909 5909 5909 5909 5910 5909 5908 5907 5906 5906 5906 5905 5904 5904 5904 5903 5903 5902 5901 5899 5898 5896 5894 5892 5890 5888 5887 5885 5884 5883 5881 5880 5879 5878 5877 5876 5875 5873 5872 5871 5870 5868 5867 5865 5864
5905 5905 5906 5906 5905 5905 5905 5905 5905 5904 5905 5904 5903 5903 5903 5902 5901 5901 5901 5901 5900 5900 5899 5898 5896 5893 5891 5889 5887 5886 5884 5882 5881 5880 5879 5877 5876 5875 5874 5873 5872 5871 5870 5868 5867 5865 5864 5862 5861
5901 5901 5902 5901 5901 5900 5901 5901 5901 5900 5901 5900 5900 5900 5899 5899 5899 5898 5898 5897 5897 5896 5896 5894 5893 5891 5888 5886 5885 5883 5880 5879 5877 5876 5875 5874 5873 5872 5870 5869 5869 5868 5866 5865 5863 5862 5860 5859 5857
5896 5897 5896 5897 5897 5897 5896 5899 5897 5896 5896 5896 5896 5896 5896 5896 5895 5895 5894 5894 5893 5892 5892 5890 5889 5887 5884 5882 5881 5879 5877 5876 5874 5872 5871 5870 5869 5868 5866 5865 5864 5863 5862 5861 5859 5858 5856 5855 5853
5890 5891 5891 5892 5892 5892 5892 5896 5893 5892 5892 5892 5893 5892 5892 5891 5890 5891 5891 5890 5889 5888 5887 5886 5885 5883 5881 5878 5877 5875 5873 5871 5870 5868 5867 5866 5865 5863 5862 5861 5860 5859 5858 5857 5855 5854 5852 5851 5849